Location: Chiroubles
(46.1812°N, 4.6660°E)
Time: 18:20:01
(UTC+00:00)

deb Explorer IX - Visible Passes

Search period start: 04 December 2020 00:00
Search period end: 14 December 2020 00:00
Orbit: 537 x 1105 km, 38.8° (Epoch: 03 December)

Date Brightness Start Highest point End Pass type
(mag) Time Alt. Az. Time Alt. Az. Time Alt. Az.
04 Dec ? 18:05:16 10° WSW 18:10:12 27° SSW 18:13:22 16° SSE visible
05 Dec ? 17:41:43 10° WSW 17:46:52 28° SSW 17:51:22 10° SE visible
06 Dec ? 17:18:09 10° W 17:23:30 29° SSW 17:28:11 10° SE visible
07 Dec ? 16:54:35 10° W 17:00:07 30° SSW 17:04:59 10° SE visible
07 Dec ? 18:44:58 10° SW 18:45:48 10° SW 18:46:38 10° SSW visible
08 Dec ? 16:31:01 10° W 16:36:43 30° SSW 16:41:46 10° SE visible
08 Dec ? 18:20:59 10° SW 18:22:27 11° SW 18:23:52 10° SSW visible
09 Dec ? 17:57:09 10° WSW 17:59:04 11° SW 18:00:54 10° SSW visible
10 Dec ? 17:33:23 10° WSW 17:35:40 12° SW 17:37:51 10° SSW visible
11 Dec ? 17:09:39 10° WSW 17:12:16 13° SW 17:14:45 10° SSW visible
12 Dec ? 16:45:58 10° WSW 16:48:50 13° SW 16:51:34 10° SSW visible
